{"data":{"norad_id":53846,"intl_designator":"2022-114AE","name":"STARLINK-4746","alt_names":[],"object_type":"PAYLOAD","status":"ACTIVE","operator":null,"country":"US","launch_date":"2022-09-19","launch_site_code":"AFETR","launch_vehicle":null,"mission":null,"orbit_class":"UNKNOWN","rcs_meters":null,"size_class":null,"mass_kg":null,"dimensions":null,"purposes":["comms"],"wikipedia_slug":null,"has_3d_model":false,"image_url":null,"decayed_at":null,"tle_current":{"epoch":"2026-05-25T04:37:51.900384Z","epoch_age_seconds":51615,"freshness":"FRESH","line1":"1 53846U 22114AE  26145.19296181  .00000426  00000+0  44866-4 0  9994","line2":"2 53846  53.2153 310.4972 0001295  79.9043 280.2095 15.08842054204528","mean_motion":15.08842054,"eccentricity":0.0001295,"inclination_deg":53.2153,"raan_deg":310.4972,"arg_perigee_deg":79.9043,"mean_anomaly_deg":280.2095,"bstar":4.4866e-5,"rev_number":20452,"period_min":95.437424757781,"perigee_km":538.8412460176,"apogee_km":540.63297541228,"semimajor_km":6917.8741107149,"source":"CELESTRAK","updated_at":"2026-05-25T13:38:17.575319Z"}}}